Theta_e
317 316 316 315 315 314 314 313 312 311 309 314 312 315 318 317 311 325 326 327 325 315 309 312 313 309 311 317 316 317 316 311 312 308 309 307 309 306 305 306 303 305 304 303 301 303 301 303 302 305 306 306 309 310 309 308 306 305 304 307 305 320 299 294 297 299 302 303 304 307 309 308 304 304 305 303 300 301 297 294 297 296 299 294 292 292 299
316 316 315 315 314 314 314 313 312 310 308 308 307 318 317 316 314 317 327 327 323 312 306 306 307 310 314 315 315 318 312 310 310 308 310 307 307 305 306 306 307 305 306 304 302 304 297 304 303 303 306 305 311 309 310 309 307 307 306 303 305 298 299 296 290 287 291 294 298 299 305 305 301 301 302 304 304 303 303 302 299 296 298 298 291 288 296
316 316 316 315 314 314 314 313 312 310 309 309 311 316 316 316 317 317 322 327 320 310 309 309 306 308 309 310 310 311 311 311 310 309 312 310 306 305 304 308 306 305 306 305 306 309 301 299 303 304 306 309 314 310 309 312 309 315 314 326 307 300 301 293 286 285 284 284 285 289 293 298 302 303 302 304 303 302 301 297 296 291 297 301 294 293 301
317 316 316 315 314 314 314 313 312 310 309 306 312 316 315 310 305 312 315 319 318 315 317 314 310 308 308 307 308 311 306 310 312 310 309 310 308 306 308 306 305 305 303 301 302 303 304 301 301 301 302 308 313 311 309 311 311 326 329 319 308 301 302 295 291 287 287 291 294 298 305 300 297 299 306 307 307 306 303 298 294 291 295 298 300 301 301
317 317 316 315 314 314 313 312 311 310 308 307 313 318 316 316 308 313 309 315 314 311 313 313 312 307 310 304 309 307 309 309 309 310 306 310 309 308 308 307 303 303 303 301 301 303 305 306 304 305 306 309 308 309 311 314 320 335 323 317 303 298 293 298 299 297 297 298 300 302 303 299 299 305 306 308 308 308 306 300 299 301 293 289 303 306 303
318 318 317 316 315 315 314 311 310 309 308 308 313 322 319 306 313 317 320 310 298 309 310 310 310 313 313 306 311 307 307 307 305 308 311 310 310 303 304 305 305 304 303 303 299 302 306 305 305 308 306 306 306 305 310 308 320 319 311 317 304 299 297 301 301 299 301 301 301 303 304 303 307 308 308 308 309 308 306 307 309 303 296 293 302 305 304
318 319 318 318 317 317 316 313 310 308 307 309 316 315 317 315 315 316 321 312 314 315 316 319 317 314 313 306 311 307 306 305 307 306 307 308 306 305 301 303 306 305 305 301 300 304 300 303 308 306 305 304 303 302 306 309 309 310 307 308 310 301 297 299 302 301 302 303 304 305 304 305 308 308 309 310 310 309 309 309 311 308 305 306 306 306 309
318 319 318 318 318 317 316 313 311 309 307 315 320 321 315 313 312 309 316 318 316 317 317 316 313 307 319 307 307 310 308 305 307 309 307 305 306 309 305 306 307 307 306 305 301 305 308 307 302 307 304 300 304 304 306 303 306 306 307 308 308 303 301 312 303 299 300 303 305 304 306 308 307 309 309 309 309 310 311 311 311 315 309 310 309 306 306
318 318 319 318 318 317 317 314 312 310 308 316 316 320 321 320 321 318 312 312 316 322 317 313 311 303 307 306 307 308 309 306 309 307 309 307 307 308 306 307 309 311 309 309 308 310 307 305 305 306 304 299 305 302 303 305 303 305 303 305 306 306 300 305 301 296 297 302 303 303 306 309 308 307 309 308 307 305 308 307 310 308 305 306 306 301 302
318 318 319 318 317 317 317 315 312 310 309 312 312 314 319 322 322 322 317 313 321 315 316 313 311 305 310 313 310 309 308 309 307 304 310 311 310 309 307 307 309 309 309 309 310 312 311 310 307 305 305 305 303 304 304 305 304 302 302 305 302 304 302 299 298 296 295 301 303 302 302 300 298 302 307 311 310 311 311 311 314 312 312 304 300 301 307
319 319 319 318 318 317 317 315 313 311 310 306 308 311 315 317 316 317 318 314 315 316 312 310 311 315 314 312 310 310 309 308 307 302 306 311 310 311 309 307 305 305 310 313 315 313 313 311 311 309 308 306 304 304 304 306 306 305 303 306 306 305 304 301 302 296 295 300 302 302 296 290 292 307 316 313 309 308 308 307 310 313 313 307 308 308 312
319 319 319 318 318 317 317 316 314 312 310 309 309 309 314 319 317 316 313 310 310 316 313 310 312 314 312 312 311 309 309 309 309 310 307 310 310 312 310 306 305 305 313 316 309 309 310 311 309 308 308 306 306 307 307 305 305 312 308 306 303 305 305 301 302 297 293 297 299 293 289 291 305 314 316 317 313 313 310 311 312 314 314 314 311 311 311
319 319 319 318 318 317 317 316 314 312 311 310 309 309 316 318 316 315 314 312 308 313 311 312 317 317 314 313 311 309 310 311 312 311 309 308 307 309 313 310 309 311 316 308 307 305 304 303 302 304 304 307 306 306 306 307 306 307 308 309 306 303 301 301 299 298 297 295 292 287 288 305 313 314 316 319 316 314 311 308 312 314 313 312 310 311 312
319 319 319 318 318 318 317 316 315 314 312 310 308 309 313 318 318 315 314 310 310 316 317 315 317 317 314 311 311 309 309 308 308 309 308 310 308 308 312 314 313 312 308 309 307 303 298 300 299 301 302 305 305 305 307 308 308 307 308 309 309 306 304 300 296 301 293 293 293 293 303 307 307 308 310 311 307 309 305 298 301 312 312 312 310 311 312
319 319 318 319 318 318 317 317 316 315 313 310 310 311 313 316 321 319 317 314 310 314 316 309 316 319 313 311 311 306 304 305 307 306 311 313 310 311 313 314 311 309 307 302 300 303 298 302 297 296 299 298 295 298 309 308 310 309 310 310 307 306 303 301 296 297 298 294 290 292 293 292 297 307 314 319 319 318 315 306 301 311 312 315 314 311 312
320 319 318 318 318 318 318 317 316 315 313 310 312 310 312 317 324 322 318 314 313 305 311 323 322 317 309 309 312 308 305 303 305 305 303 308 311 311 312 311 309 307 307 306 304 303 304 300 296 298 295 297 303 303 300 305 304 309 308 309 308 309 307 302 298 297 296 294 291 288 289 292 300 307 313 317 319 318 315 303 296 307 312 314 315 312 313
319 319 319 318 318 318 318 317 316 315 313 310 309 309 311 320 319 317 315 316 316 313 321 323 319 315 307 304 307 306 308 303 304 301 300 303 308 311 311 312 309 309 307 304 306 302 300 299 300 298 298 304 300 298 304 303 301 304 308 309 307 305 304 302 298 297 297 294 292 289 297 298 306 312 315 317 316 317 304 291 291 306 312 313 315 313 313
319 319 319 318 318 318 318 317 316 314 312 309 310 308 309 316 317 319 318 316 310 312 318 322 317 312 306 306 305 309 312 309 306 306 303 307 309 312 315 311 306 310 310 302 305 301 301 300 298 297 296 304 309 303 294 300 298 297 300 301 300 301 301 299 295 294 298 300 294 298 299 308 314 314 317 316 319 309 295 289 297 308 313 315 315 314 314
319 319 319 319 318 319 319 318 317 315 313 309 311 311 313 315 317 317 316 314 312 309 318 324 324 320 321 321 315 314 316 317 309 302 300 298 305 313 314 311 311 303 305 301 304 301 299 300 304 302 299 299 306 298 302 299 297 303 302 296 297 297 300 300 298 295 295 294 293 293 296 303 311 314 317 316 309 294 292 300 309 313 314 316 317 315 316
319 319 319 319 318 319 319 319 318 317 315 312 310 307 311 314 319 315 314 312 313 313 319 319 321 319 319 317 312 307 309 310 309 303 300 300 306 313 306 304 307 308 308 304 300 301 300 296 298 304 297 299 303 307 300 301 305 301 300 301 295 296 294 293 295 298 297 294 291 290 286 304 316 315 312 312 302 299 304 310 315 318 316 315 315 316 316
318 319 319 319 319 319 319 319 318 317 316 313 311 308 310 316 315 316 318 315 312 311 311 322 324 320 321 321 322 322 314 311 311 308 311 311 314 310 299 302 305 307 304 305 298 302 305 300 301 303 302 301 301 302 296 298 300 306 304 302 302 305 296 295 298 299 293 291 292 290 297 305 315 312 303 307 311 311 314 315 312 315 316 316 315 316 317
318 318 319 319 319 319 319 318 318 317 316 314 312 310 307 313 315 316 316 315 313 314 315 322 326 325 328 330 329 328 322 315 316 317 312 309 314 312 308 311 312 311 313 313 309 308 308 306 308 300 298 299 303 300 302 294 294 301 308 304 297 305 301 300 295 303 298 295 297 303 309 312 314 314 310 312 316 318 319 317 316 315 315 317 316 316 317
318 318 318 319 319 319 319 318 318 317 316 315 312 308 307 310 312 315 314 312 319 322 326 326 328 329 332 333 336 335 332 319 316 317 317 313 310 313 313 309 309 317 321 317 308 307 308 306 303 304 301 303 304 300 299 298 296 303 301 307 304 311 313 309 306 305 310 311 311 314 313 313 314 317 317 317 318 319 319 318 315 315 316 317 316 317 317
318 318 319 319 319 319 319 318 318 317 316 315 313 309 309 310 311 313 314 317 317 313 314 320 318 313 314 319 324 322 323 320 317 319 323 317 309 307 312 316 319 319 315 318 316 310 309 308 309 306 300 303 305 298 297 296 301 303 303 305 307 311 313 308 303 308 300 296 308 311 311 312 315 316 319 319 319 318 318 317 317 317 317 317 319 318 318
318 318 319 319 319 319 318 318 317 316 315 314 313 312 312 310 313 312 310 310 311 307 304 308 312 319 324 325 325 319 318 319 327 317 317 319 313 310 310 316 321 312 312 315 317 310 310 305 304 304 301 306 308 300 303 297 299 306 299 301 305 306 314 306 307 304 299 298 306 311 314 314 315 314 314 315 316 318 319 319 319 318 318 319 319 320 320
317 318 319 319 319 319 318 318 317 316 314 313 313 309 307 309 312 313 312 315 315 313 306 304 311 321 323 322 320 322 324 322 317 317 318 318 320 319 318 321 321 319 318 323 314 312 310 311 309 306 303 303 311 303 304 303 302 307 303 300 305 308 314 301 306 304 306 308 311 312 310 313 315 315 316 317 315 315 315 316 318 318 318 318 320 322 321
317 317 318 318 318 318 318 317 316 315 314 313 312 311 310 311 313 312 313 315 310 306 308 305 311 316 319 317 322 324 325 319 315 314 317 319 319 318 319 317 318 316 314 314 315 314 312 309 306 304 308 307 311 309 308 306 308 306 304 310 314 309 304 309 305 301 301 301 305 311 304 302 307 312 315 316 317 317 316 316 317 317 317 317 318 317 319
317 318 318 318 318 318 317 317 316 315 314 313 313 312 313 311 314 316 317 319 313 303 303 306 307 311 320 317 323 322 321 316 315 315 314 316 318 315 316 314 312 314 315 312 308 307 307 306 303 311 313 314 310 305 312 308 309 306 305 307 311 307 308 305 302 299 299 308 312 312 309 308 311 313 317 318 319 318 316 315 315 316 316 317 317 317 317
317 317 317 317 317 317 317 317 316 315 313 312 312 313 316 317 317 320 324 327 322 315 310 312 314 313 308 314 322 318 319 315 314 313 314 315 316 314 314 313 312 312 315 313 313 311 308 308 312 309 308 314 309 306 306 300 301 301 306 312 315 315 315 311 310 310 312 314 316 316 313 312 314 317 318 319 319 318 316 316 316 316 316 318 319 318 317
316 316 316 317 317 317 317 317 316 314 313 311 310 310 310 319 322 320 319 318 319 318 310 307 302 306 316 320 317 318 317 317 314 314 314 312 313 312 312 312 313 317 314 311 311 307 309 310 313 315 320 321 311 308 303 301 301 305 313 314 316 316 317 317 317 312 311 316 318 318 317 317 318 319 319 319 320 319 316 316 316 318 319 320 320 319 319
316 316 316 317 317 317 317 317 316 314 312 309 307 305 305 306 315 318 316 315 315 315 313 311 307 314 316 320 319 317 318 316 312 311 313 313 312 313 314 316 315 316 310 312 309 309 312 309 310 311 319 322 317 307 304 302 301 305 311 316 316 316 316 317 319 318 319 318 320 321 319 318 318 316 315 315 316 317 316 317 319 325 325 325 320 319 320
316 316 316 317 317 317 317 316 315 314 309 307 304 306 308 313 317 317 316 315 314 313 311 308 307 306 308 314 316 317 316 316 316 315 315 314 313 313 314 314 313 317 315 310 314 312 309 311 312 312 311 316 318 308 307 304 301 304 313 315 318 318 318 318 318 320 319 320 315 311 311 312 314 314 312 315 316 318 318 318 319 319 323 322 321 322 324
316 316 316 317 316 316 316 315 315 314 309 312 315 315 315 315 315 315 315 313 311 309 314 310 304 307 305 309 316 317 319 319 316 313 313 315 315 316 315 323 317 314 331 315 306 303 312 312 313 310 313 319 311 309 306 303 305 311 314 315 316 317 317 319 320 319 317 317 315 311 308 310 313 315 317 318 319 318 319 319 320 320 320 320 320 321 323
316 315 315 315 315 314 313 313 314 313 312 309 306 309 314 315 314 315 314 313 309 313 315 309 305 303 304 314 309 312 319 310 310 310 306 315 322 311 311 316 318 312 313 309 311 310 311 311 308 310 313 313 314 308 303 307 312 313 314 316 317 317 316 316 316 316 317 317 318 317 316 316 316 317 318 318 318 319 321 320 320 319 319 320 321 322 322
313 313 313 313 312 313 313 312 309 308 306 308 309 313 317 320 318 317 314 313 308 309 309 310 308 302 300 302 303 308 318 315 309 308 306 311 317 311 315 310 311 306 310 315 311 307 309 308 312 310 306 310 309 303 305 309 312 313 312 313 316 315 314 313 314 316 317 317 318 317 318 318 316 315 315 317 318 319 319 320 320 319 318 318 320 321 322
312 312 312 312 312 312 310 311 307 307 306 306 309 321 320 320 318 315 317 323 316 307 305 306 307 300 299 296 295 307 316 310 313 314 314 315 310 316 314 309 305 307 315 311 304 309 306 313 311 301 307 305 303 306 309 313 312 312 313 314 315 314 314 314 315 317 316 317 318 317 317 316 315 314 314 317 318 318 319 319 320 320 319 318 318 320 321
311 311 311 311 310 310 307 309 313 311 311 317 321 322 323 323 325 324 321 317 320 321 308 305 303 304 304 301 307 313 311 302 309 309 309 306 305 312 310 307 301 310 310 307 307 305 308 320 307 304 304 301 305 312 314 315 314 313 314 315 316 317 317 317 319 316 315 315 315 314 315 315 315 314 315 316 317 318 319 318 319 319 318 319 320 321 321
310 310 306 306 306 304 305 311 315 318 323 321 321 317 317 317 310 312 314 310 315 318 310 308 302 304 309 307 304 313 311 304 308 305 306 310 307 307 311 308 306 308 299 302 306 313 312 310 306 303 305 311 313 315 316 317 317 317 316 316 317 318 317 318 316 314 312 310 310 311 313 313 313 314 315 316 317 318 319 320 320 322 322 323 322 323 324
309 309 308 306 305 303 306 313 319 321 319 320 318 314 310 313 308 306 308 311 314 307 312 305 301 303 303 302 304 310 310 307 304 305 303 312 305 303 309 302 307 306 298 302 305 314 305 304 306 304 306 310 311 314 318 317 317 318 317 316 318 318 318 318 318 316 314 312 313 315 315 313 313 315 317 317 318 319 320 321 321 321 322 323 323 324 324
309 307 307 305 303 305 313 315 319 316 318 315 316 312 306 311 304 299 313 306 304 310 310 303 306 304 305 302 301 300 312 307 303 302 304 309 310 303 307 305 307 302 297 296 301 310 301 298 301 303 302 307 310 315 316 317 316 317 316 318 320 319 318 317 318 318 319 318 319 320 321 321 322 319 318 319 319 319 320 321 321 321 322 322 325 323 322
305 304 307 305 305 305 308 311 313 315 313 309 310 310 307 300 307 308 307 302 301 304 313 309 308 306 307 306 303 300 309 316 313 312 309 304 314 310 302 302 310 302 300 298 308 309 305 303 302 300 301 308 311 315 317 317 317 319 318 319 319 318 318 318 318 319 319 318 318 319 320 321 320 320 320 321 321 320 320 320 320 322 322 321 321 322 324
303 302 304 306 306 307 308 310 310 309 311 311 303 297 302 304 307 305 306 298 300 306 309 312 306 305 305 307 305 305 308 314 315 313 307 305 312 305 303 306 306 299 296 304 311 308 304 299 298 301 307 311 314 316 315 314 317 316 317 319 320 317 318 317 318 319 320 319 320 320 320 319 320 321 321 322 321 321 321 321 322 322 323 325 327 325 323
310 310 308 306 309 308 309 302 309 309 292 296 298 291 298 297 300 299 301 306 310 308 308 318 313 314 315 314 309 310 309 315 309 310 307 305 309 308 303 302 301 295 301 310 306 302 299 297 298 302 309 313 315 316 315 316 316 318 318 318 317 317 317 318 318 319 320 320 320 320 320 320 321 322 324 323 323 322 322 322 322 321 323 323 322 323 322
308 309 306 308 303 306 308 291 307 302 294 294 291 287 295 295 299 302 300 301 306 305 308 308 308 309 307 310 308 308 310 310 315 313 308 311 307 304 302 298 298 306 310 305 302 297 298 301 303 307 313 314 318 315 316 316 316 316 316 318 319 320 319 318 318 318 319 320 320 321 321 321 323 324 323 321 320 318 318 318 320 321 321 321 320 319 319
302 304 304 302 295 303 301 289 305 298 290 295 297 296 297 295 297 299 300 306 309 305 311 312 311 310 309 313 314 312 310 305 313 306 304 306 303 303 300 299 305 306 301 298 299 299 300 300 307 311 314 314 315 316 316 316 316 316 316 317 317 317 318 318 318 319 318 319 320 321 320 320 321 320 319 318 318 318 317 317 319 320 319 319 319 318 319
300 295 294 291 290 293 293 290 293 289 298 301 300 300 300 300 301 302 306 314 312 313 312 312 312 312 310 314 308 307 310 308 303 304 306 304 300 299 305 311 307 300 300 298 297 295 297 301 309 313 314 315 316 317 317 317 317 317 316 314 315 317 317 318 318 319 319 319 319 320 319 319 318 316 316 316 316 316 316 318 319 319 319 318 318 319 321
298 301 298 297 290 292 301 290 293 299 302 303 303 304 304 304 307 308 314 314 312 315 315 317 316 314 310 308 310 311 311 309 303 307 307 301 300 302 309 303 298 297 295 295 296 297 299 303 310 314 316 316 317 317 317 317 318 317 315 315 317 317 318 318 318 319 319 320 319 319 318 317 316 316 315 314 315 315 317 318 319 320 319 318 319 320 320
290 301 301 289 288 293 293 298 303 303 304 306 306 308 309 310 309 308 312 316 316 316 315 314 311 311 309 315 312 308 307 310 306 306 308 308 307 303 298 300 297 300 299 297 297 299 302 308 313 315 317 318 317 317 316 316 317 316 316 317 316 317 318 318 318 319 320 319 318 317 316 315 315 315 314 314 313 314 316 318 319 320 319 319 319 318 318
300 296 290 292 300 298 298 302 302 299 301 307 309 309 308 307 307 309 313 314 313 313 314 312 311 312 306 309 307 306 303 310 300 298 306 304 298 294 295 294 296 295 301 302 301 304 307 312 316 318 318 317 317 318 317 316 317 317 318 318 317 318 318 318 319 320 321 319 318 317 316 316 315 314 313 313 313 313 315 316 317 318 318 318 317 316 316
294 292 299 296 297 300 302 304 300 297 300 302 306 306 307 307 308 312 316 313 314 315 315 314 314 307 306 307 297 303 304 306 305 302 300 298 299 300 299 295 297 297 299 304 306 309 313 316 317 317 317 318 319 318 317 317 323 319 319 319 320 320 320 319 320 319 319 318 318 317 317 316 314 314 313 313 313 313 315 315 315 315 316 317 316 315 315
299 297 296 304 299 299 301 296 295 294 297 298 301 305 306 305 307 308 317 315 314 311 309 305 306 305 296 298 298 293 300 309 303 300 299 298 302 300 298 297 299 302 303 309 313 315 316 316 316 316 316 317 318 317 318 318 318 318 319 320 320 320 320 321 320 320 319 319 319 322 316 314 315 316 318 316 313 313 312 314 315 315 315 315 315 314 312
292 289 292 297 301 301 302 302 302 301 299 301 302 306 306 304 308 311 318 314 311 306 304 310 307 296 294 292 302 304 308 303 300 301 299 301 304 300 300 301 303 307 312 313 313 315 317 317 317 318 316 318 319 319 319 319 319 319 319 320 321 321 320 320 320 319 319 319 317 316 315 316 316 316 316 313 311 311 310 310 313 313 314 313 313 312 311
Wind_Speed
24 25 25 26 27 28 28 28 26 27 23 5 4 3 1 0 3 4 8 10 11 4 0 1 1 2 4 4 8 7 4 4 1 3 2 2 1 3 4 1 3 2 2 3 3 4 2 2 2 2 2 2 1 2 5 4 4 5 2 2 2 2 2 3 5 8 7 8 4 2 3 4 7 6 5 4 3 1 4 4 3 3 2 2 2 1 2
23 24 25 26 27 28 29 28 27 26 18 2 2 1 1 2 1 1 2 3 5 5 1 1 4 5 6 6 9 8 5 3 1 2 2 1 1 2 1 2 2 1 2 2 1 1 2 2 4 1 1 2 3 4 3 4 1 3 2 1 3 1 1 3 2 5 9 9 9 10 8 5 3 4 6 3 3 3 2 5 2 2 3 3 3 4 2
23 24 25 26 27 28 29 29 27 26 17 1 1 2 2 3 2 1 2 1 2 3 4 1 2 3 5 5 8 6 2 3 2 3 0 1 1 1 1 0 1 1 0 1 1 0 2 1 2 2 1 2 0 1 7 6 4 3 5 5 2 3 1 2 1 2 2 4 4 5 7 7 7 3 5 8 6 4 3 3 2 2 1 1 2 1 3
22 23 24 25 27 28 29 31 29 26 18 3 2 2 2 3 2 2 3 1 1 2 3 3 4 8 5 4 6 4 2 1 4 5 2 1 3 3 1 2 4 2 4 4 4 5 2 1 1 2 1 1 1 1 5 3 3 4 9 5 3 1 1 2 4 5 5 7 6 6 1 4 4 8 8 7 4 4 5 4 3 1 1 2 1 3 1
22 23 24 25 26 27 28 31 32 27 20 3 1 2 1 1 2 3 2 4 1 5 2 4 2 5 1 1 2 4 0 1 1 5 1 2 2 2 0 0 1 2 4 2 3 3 4 5 5 4 2 0 1 3 7 4 4 8 4 4 4 2 2 1 5 5 7 7 5 8 4 4 3 6 7 9 7 5 9 5 1 2 3 2 1 2 1
22 23 23 24 25 26 28 30 32 32 25 4 1 2 2 1 2 3 1 1 2 4 6 3 5 11 6 7 2 3 1 2 1 3 1 4 1 2 4 3 2 4 4 2 2 3 3 4 2 3 3 1 6 3 4 2 3 3 1 2 2 3 0 2 2 3 4 6 6 5 3 2 3 5 7 8 8 12 9 2 0 3 2 2 2 1 2
23 23 24 25 25 26 27 28 30 32 31 5 1 4 6 2 2 2 5 2 1 2 10 12 11 14 7 3 6 4 3 4 4 3 1 2 2 2 0 4 3 4 5 4 1 1 1 1 1 1 3 4 3 3 3 2 6 2 2 0 1 2 1 3 2 2 4 6 7 6 6 4 8 8 6 6 9 7 6 4 3 6 3 3 3 3 3
24 24 25 25 25 26 25 26 28 30 32 10 2 8 3 4 3 5 3 3 4 5 4 6 8 9 1 1 2 1 0 4 4 4 3 2 1 1 5 6 6 5 5 5 4 2 0 2 2 1 2 4 3 0 1 1 5 3 2 1 0 2 1 5 2 3 3 6 7 6 8 8 8 6 8 7 6 7 4 2 3 2 0 1 4 3 1
24 24 23 23 24 25 24 24 26 30 26 7 7 3 4 3 2 2 4 6 5 3 5 7 7 5 8 7 5 3 1 3 0 3 2 3 2 1 3 4 9 8 8 8 5 2 4 4 3 2 3 1 1 1 2 1 1 3 2 1 1 2 2 2 2 3 4 4 4 4 8 11 10 7 6 5 4 3 2 2 1 1 1 2 2 2 2
24 24 22 22 22 23 23 22 24 25 20 4 4 5 3 2 3 4 1 1 3 4 5 4 4 7 7 5 11 2 2 5 4 5 4 7 7 4 5 6 9 3 6 5 3 3 1 1 3 2 2 3 3 4 4 1 1 1 1 0 0 1 1 1 1 2 2 5 4 7 1 2 2 4 4 1 3 1 2 2 3 1 1 2 0 3 2
23 22 21 21 21 22 22 21 21 23 15 8 5 4 5 7 7 5 2 1 5 6 5 5 5 1 8 13 13 5 6 6 5 5 1 3 4 5 8 7 7 2 3 1 2 1 0 2 2 2 2 3 4 5 4 6 4 4 2 1 1 2 2 1 1 0 2 6 6 2 3 4 2 1 1 2 1 1 1 1 0 2 2 1 2 1 2
21 19 20 20 20 20 21 21 20 19 14 5 3 5 5 3 4 1 3 5 5 4 4 3 5 6 10 12 12 9 5 9 7 4 6 2 1 2 6 5 5 3 1 2 2 4 4 2 2 2 1 3 6 6 7 7 8 5 5 5 3 2 3 1 1 1 3 3 5 3 1 3 2 1 1 2 3 3 3 3 3 1 1 2 3 3 4
20 20 21 21 20 20 20 20 20 19 17 8 1 4 4 3 2 2 1 1 3 5 6 9 9 9 8 12 12 8 6 3 3 6 5 4 4 3 0 3 3 2 1 1 4 5 2 2 4 3 5 3 4 7 9 9 9 7 4 5 4 4 4 2 0 2 2 2 1 0 3 1 1 3 2 3 3 2 1 3 2 2 1 1 0 1 3
20 20 20 20 20 20 20 20 21 21 20 13 6 4 4 3 4 4 3 2 5 3 4 7 8 14 12 9 7 8 7 11 7 7 4 1 3 5 6 3 3 3 2 3 5 2 2 4 2 5 5 3 2 2 5 11 11 8 8 5 6 7 2 3 1 0 1 2 0 1 0 1 3 2 2 1 0 1 1 1 4 2 2 1 0 2 3
16 19 19 19 20 20 19 20 20 22 22 19 5 5 3 3 2 3 2 1 3 6 1 2 8 10 9 3 6 7 6 6 8 6 4 2 4 3 3 3 3 3 4 5 2 3 1 1 1 1 4 1 0 3 2 0 3 10 11 10 4 5 4 3 3 2 1 1 2 1 1 2 4 4 5 1 3 3 3 2 4 1 2 1 0 1 3
17 18 19 19 19 19 19 19 18 20 21 23 8 6 6 4 4 2 2 1 0 3 2 2 7 8 5 3 2 4 2 3 3 2 5 5 4 1 3 1 2 4 4 3 1 0 0 0 2 1 2 2 2 0 2 2 2 2 4 5 6 5 5 6 2 1 1 1 2 2 2 2 3 5 4 4 3 4 1 1 4 1 1 2 0 2 3
16 17 19 19 18 18 18 18 17 18 17 17 9 6 5 4 6 5 3 3 0 6 7 8 6 4 2 6 8 5 2 2 2 3 3 4 3 1 2 0 2 4 4 2 1 1 2 1 0 1 3 2 1 3 1 1 1 1 2 5 6 5 1 1 1 1 0 1 1 3 2 2 4 6 4 3 2 1 2 2 3 3 2 3 1 3 4
16 16 18 19 18 17 17 17 17 17 17 17 9 5 6 4 6 6 1 1 1 5 4 3 8 5 4 4 3 4 1 3 5 2 2 2 1 2 2 2 2 3 3 1 1 1 0 1 1 2 3 4 0 2 1 1 0 2 1 1 0 2 1 2 3 3 1 2 1 1 2 2 2 3 3 3 0 2 1 3 4 2 2 3 2 3 5
16 15 16 18 18 18 17 17 16 16 16 19 13 3 3 3 7 7 1 2 2 4 7 9 5 4 3 4 1 1 0 0 1 2 2 5 2 3 3 2 1 0 2 2 2 1 1 2 0 2 2 3 2 2 1 0 2 0 3 1 2 2 1 1 3 2 0 1 1 2 2 4 2 1 1 1 1 1 3 3 2 1 3 4 3 4 5
16 15 16 15 18 17 18 17 16 15 15 17 10 2 9 9 2 6 4 3 2 5 11 10 2 5 5 4 5 4 8 6 3 3 2 0 4 5 7 2 4 2 2 2 1 2 1 3 3 0 1 1 1 1 1 1 0 1 1 1 2 3 2 1 0 1 1 3 2 1 1 2 3 3 2 2 1 3 3 1 2 2 3 3 4 3 6
15 15 14 15 14 16 16 16 15 14 14 14 11 6 8 1 4 4 2 1 2 5 9 4 2 8 7 7 7 6 3 1 1 2 2 2 2 1 1 2 3 0 1 2 3 1 0 2 2 1 2 1 2 1 1 1 2 2 1 1 1 2 2 1 1 2 1 1 1 2 3 4 3 3 1 2 4 3 3 1 3 3 2 3 3 4 5
15 15 16 14 14 14 15 14 14 13 12 12 11 3 4 5 6 5 5 3 4 7 7 9 7 11 15 11 10 8 8 2 0 2 1 3 2 1 2 1 1 1 1 1 1 1 2 0 0 2 3 3 3 0 1 1 0 2 2 3 1 2 2 4 1 2 1 3 3 3 3 4 3 4 4 4 4 4 3 3 4 3 5 3 3 6 6
15 15 15 15 14 14 15 14 14 13 12 12 8 2 5 9 10 9 7 2 4 5 6 8 7 9 10 9 10 12 11 7 2 0 3 2 3 2 1 1 2 1 1 1 2 3 2 2 2 1 0 0 1 3 3 1 2 1 1 1 3 0 1 2 5 1 0 0 1 1 0 1 1 2 3 4 4 4 3 4 4 4 7 4 4 6 6
15 15 15 15 14 15 15 14 14 13 13 11 6 5 7 6 8 7 4 2 1 6 6 2 1 4 3 9 15 10 6 2 2 2 3 4 1 3 2 1 0 2 1 2 4 1 2 2 3 1 1 2 1 1 1 2 0 1 1 1 2 2 0 1 2 1 2 1 0 2 2 2 2 3 3 3 2 4 3 3 5 7 6 5 6 6 7
14 15 15 14 14 14 14 14 14 14 12 12 10 5 6 6 3 2 3 2 5 3 2 7 5 6 5 9 6 3 2 2 3 5 3 2 4 3 3 2 2 3 1 2 1 3 2 0 2 1 0 3 2 1 1 3 3 1 1 2 0 1 1 2 0 3 2 2 4 4 3 3 3 5 3 2 3 5 4 5 6 6 5 5 7 4 4
15 14 13 14 13 15 15 14 14 14 14 14 10 6 5 8 2 1 3 3 3 2 3 4 8 6 9 13 9 6 9 10 5 4 4 3 5 6 5 1 1 1 1 1 3 1 1 1 1 1 1 3 1 1 0 3 3 1 2 4 6 3 3 1 1 1 2 2 1 2 2 3 1 3 2 1 3 3 4 4 4 5 4 3 3 1 2
16 15 13 13 14 14 14 14 14 14 15 16 11 7 7 9 5 5 4 1 1 2 0 4 6 8 9 15 13 7 7 5 5 4 3 3 4 1 3 2 1 1 2 2 1 2 1 1 1 1 1 2 2 2 1 2 1 0 1 0 1 4 1 0 2 1 1 3 2 0 1 2 3 4 4 4 5 4 5 6 5 5 4 3 1 3 3
16 14 13 13 13 13 13 14 13 14 14 17 12 11 7 6 4 6 6 3 1 2 2 5 7 11 11 10 6 4 11 4 5 5 4 4 3 1 4 5 3 1 1 1 2 0 1 1 2 2 0 1 1 2 1 0 1 2 2 1 1 3 3 3 3 4 3 3 3 2 3 2 6 4 4 5 5 4 4 4 4 4 4 2 1 4 4
14 14 13 13 13 13 12 13 13 11 15 13 11 10 6 3 5 5 4 3 4 1 1 5 5 3 2 8 11 9 7 3 4 4 3 4 4 4 5 5 4 2 2 2 2 1 1 3 2 1 0 2 2 1 2 2 0 1 1 2 0 0 3 4 4 4 1 3 3 3 1 2 4 4 4 5 4 2 4 5 5 5 4 2 2 3 4
14 13 13 13 13 12 11 11 11 10 11 8 6 2 2 1 2 4 6 8 5 1 1 4 4 5 4 5 8 6 4 5 5 5 4 3 3 5 4 4 4 3 1 2 3 1 2 1 1 0 0 1 1 0 0 1 1 2 1 1 2 3 4 2 4 4 2 2 2 2 2 4 4 4 4 4 3 3 5 5 7 6 5 4 3 4 4
14 13 13 13 13 11 11 11 9 8 6 4 2 2 0 1 2 3 6 8 8 3 1 1 5 6 6 4 5 10 11 5 4 5 6 6 5 6 3 2 1 3 1 0 0 1 0 0 0 0 0 0 2 2 3 0 0 0 2 0 3 5 4 4 3 3 3 2 2 1 0 2 2 3 4 3 5 6 5 5 6 5 5 4 5 4 4
13 13 13 13 12 11 11 10 9 5 2 1 2 3 2 2 1 6 6 8 8 4 1 3 4 2 2 4 3 2 4 4 5 4 2 3 3 2 2 4 3 3 3 3 2 1 1 3 2 2 2 2 2 1 1 1 2 3 1 4 2 4 3 3 1 1 2 1 2 4 2 4 3 1 4 5 5 4 3 4 4 4 5 3 3 2 2
13 13 12 10 11 13 13 12 11 6 4 9 15 19 24 27 28 25 11 3 2 2 1 0 3 2 2 5 6 6 3 2 0 3 3 1 2 1 0 1 1 2 1 3 0 2 2 2 1 1 1 1 1 1 2 3 3 4 6 5 4 4 3 1 2 3 3 3 2 1 2 3 4 4 3 3 3 4 4 4 4 4 4 4 4 4 5
11 8 9 11 12 13 14 13 12 12 11 5 7 6 7 17 19 20 5 5 2 2 1 1 2 2 4 5 4 9 2 2 2 5 3 1 2 3 2 2 1 2 1 1 2 0 2 1 2 1 1 1 1 2 1 2 2 6 4 3 2 2 2 4 4 3 3 2 1 0 2 3 2 1 3 4 4 4 4 4 5 4 4 3 3 3 3
7 10 11 13 14 14 15 15 7 2 3 5 6 7 7 9 9 12 14 6 4 0 1 2 1 2 3 3 2 7 4 1 2 4 5 3 1 3 1 2 2 1 3 1 1 2 3 4 5 3 4 1 2 1 2 3 3 4 4 3 1 3 3 2 2 2 3 3 3 4 3 2 5 5 4 4 4 4 5 6 4 3 3 3 3 3 3
9 11 12 13 16 13 7 2 4 3 2 4 6 3 3 5 8 8 5 1 0 1 1 2 1 4 3 2 3 5 2 2 2 2 1 1 1 1 2 3 1 5 2 2 2 1 1 2 2 3 1 2 4 4 6 7 7 5 4 3 2 3 1 2 1 1 2 3 4 3 3 4 4 4 3 4 4 4 4 4 3 3 3 3 4 4 3
12 12 13 14 7 0 2 3 2 4 4 4 6 4 5 3 4 2 0 3 1 0 2 1 2 5 4 4 2 4 3 3 1 1 1 2 3 0 2 2 2 1 1 1 0 3 5 0 2 1 2 3 2 2 5 8 8 7 4 4 3 3 3 2 1 2 3 4 5 4 3 4 4 4 4 4 5 4 4 4 4 4 4 4 4 4 4
13 9 3 2 1 2 2 2 2 2 11 11 2 0 1 1 1 0 1 0 2 2 2 1 6 3 1 1 6 5 3 5 2 1 1 1 3 1 0 2 3 1 3 2 4 4 2 1 2 3 1 2 3 2 4 5 4 4 5 4 3 4 3 3 2 2 2 4 4 4 4 3 3 3 3 4 4 4 5 5 4 4 4 3 3 3 3
6 2 1 2 1 3 1 0 7 15 8 2 1 0 1 2 1 1 2 2 1 2 2 5 7 4 4 4 7 3 2 2 5 2 0 1 1 1 1 1 2 1 1 0 3 1 1 1 0 1 2 1 2 2 2 5 4 4 4 3 4 4 3 1 1 0 1 3 3 3 2 2 3 4 3 4 3 3 4 5 3 3 3 3 3 3 3
0 1 1 2 4 4 6 7 11 8 2 0 0 1 1 2 3 2 2 2 1 2 3 6 4 5 10 11 9 8 2 4 3 3 2 1 0 1 1 1 0 1 1 2 2 1 2 1 1 2 2 2 4 2 3 4 4 3 4 3 4 3 3 3 0 0 0 1 1 1 0 0 1 2 3 3 3 4 4 4 3 3 3 3 3 3 3
4 4 4 3 4 5 6 8 7 1 0 1 1 1 0 1 2 2 1 3 3 3 3 4 2 4 5 6 5 9 5 1 3 3 2 2 1 3 2 1 1 1 1 1 1 1 1 0 1 4 6 5 5 4 4 4 4 4 3 3 3 4 3 1 1 2 2 2 2 2 1 2 3 3 3 3 2 2 2 2 3 3 3 3 3 3 3
2 3 4 6 7 6 5 2 1 0 1 1 1 2 2 2 1 2 1 3 4 2 4 4 3 5 6 11 8 4 3 3 1 1 1 2 1 2 2 1 0 2 1 2 2 1 1 1 1 2 2 4 5 4 5 4 3 2 1 4 4 3 1 2 4 2 1 1 1 1 1 3 3 3 3 2 2 2 2 3 5 5 5 4 4 4 5
14 12 6 4 3 3 1 1 2 2 2 2 2 1 2 2 3 3 2 2 1 2 2 3 3 3 1 4 1 3 4 2 2 1 1 2 0 1 1 0 1 0 3 1 1 1 2 2 2 4 3 5 5 6 5 5 4 4 2 4 3 1 2 4 2 1 2 2 1 1 1 2 2 3 3 4 4 4 4 4 5 5 5 5 4 4 5
6 3 3 3 2 2 2 3 1 1 1 1 3 3 3 2 2 3 2 3 2 2 3 4 4 5 5 2 3 2 1 1 0 1 0 0 2 1 1 1 2 1 1 1 1 2 3 2 3 5 6 4 3 4 5 4 4 4 2 3 4 6 5 3 2 3 3 3 3 2 2 3 3 4 5 4 4 4 3 4 4 4 4 4 4 4 4
3 2 2 1 1 2 2 2 2 2 4 3 2 3 3 5 5 4 6 5 1 2 3 2 1 0 1 4 3 2 1 2 1 2 2 1 1 1 2 2 2 1 2 2 0 0 1 2 2 3 5 5 5 5 4 5 4 4 2 2 4 3 4 4 2 2 2 3 2 2 3 3 3 4 4 4 3 3 4 3 4 5 6 5 5 5 5
2 2 2 3 3 2 1 1 1 1 2 2 3 5 5 5 3 4 3 3 5 7 7 4 2 2 2 1 3 2 3 1 2 2 2 1 2 2 2 0 2 1 0 1 2 4 6 6 6 7 6 6 6 5 5 4 4 3 4 2 1 2 3 4 2 1 2 3 3 4 3 3 3 3 3 3 4 4 3 3 5 5 5 5 5 5 5
3 3 2 1 1 2 1 2 3 3 1 2 5 5 6 5 3 1 1 1 1 2 2 1 1 3 3 1 1 2 2 2 1 2 1 1 2 1 1 2 2 2 2 3 3 3 2 3 6 6 6 6 6 5 5 4 4 3 3 2 4 3 4 3 2 3 4 4 4 4 3 3 3 3 3 3 4 4 4 4 6 5 5 5 5 5 5
3 3 2 2 3 2 5 4 3 5 2 2 3 6 7 3 2 3 3 1 1 1 4 2 3 4 1 3 2 4 3 2 2 4 1 1 0 1 0 0 1 1 2 3 5 4 5 5 8 7 7 7 7 6 5 4 4 5 5 5 4 4 4 3 3 4 4 4 4 3 3 3 3 3 3 3 3 4 4 5 5 5 5 6 6 6 6
4 3 1 2 2 1 1 2 5 8 3 4 3 5 6 7 1 2 4 1 2 2 1 4 2 0 3 2 0 2 2 1 2 3 1 0 2 3 2 2 3 3 2 3 3 3 6 7 6 7 7 7 6 6 5 5 5 5 6 6 4 5 4 4 4 4 4 4 3 3 3 3 3 3 3 3 4 4 4 4 5 5 6 6 6 6 7
4 2 2 3 3 3 3 3 0 3 1 3 2 1 1 6 2 1 2 1 1 0 1 3 2 4 1 1 1 2 2 2 2 1 1 3 2 1 1 2 2 3 2 2 3 3 5 7 7 7 7 7 6 6 6 4 5 5 5 5 4 4 4 5 5 4 4 3 3 3 3 2 2 2 3 4 3 3 4 5 5 5 6 6 6 7 7
2 4 3 3 5 3 3 1 1 1 3 2 3 2 2 4 3 2 2 1 2 2 2 2 1 2 0 1 1 0 3 2 1 3 4 3 1 2 3 3 3 4 4 2 3 7 8 7 8 8 7 6 6 6 6 5 5 6 5 5 5 5 5 5 5 5 4 4 4 5 3 2 2 3 4 4 3 4 5 6 5 5 6 6 6 6 5
2 3 4 5 6 7 7 6 4 2 3 5 3 2 3 2 4 2 4 2 1 3 2 1 1 2 1 2 3 1 3 2 2 2 3 3 2 3 3 6 5 6 7 8 6 6 6 6 7 8 7 8 7 7 6 5 5 6 5 5 6 6 5 5 5 5 5 4 4 3 3 3 4 5 5 4 3 4 6 5 3 3 4 4 4 4 4
Wind_Direction
351 351 351 350 349 347 347 350 351 351 347 0 6 312 32 87 195 250 165 148 133 88 42 287 305 290 238 246 268 255 257 252 186 80 9 68 5 51 50 34 52 29 45 15 61 23 31 35 117 153 85 55 44 213 67 106 50 84 345 1 307 54 81 32 299 306 287 294 296 240 73 28 18 0 351 20 348 252 167 182 191 129 330 40 357 132 249
351 352 352 351 349 348 347 350 353 352 358 313 281 34 119 258 255 38 213 173 116 88 188 253 246 256 274 261 264 271 252 224 224 78 54 107 4 95 35 336 96 227 8 77 18 68 54 9 79 359 108 99 224 131 84 111 67 94 233 128 275 25 316 107 6 351 333 350 358 360 350 50 82 302 294 288 290 73 126 100 47 79 229 164 124 246 245
352 352 353 352 351 349 348 348 352 356 355 319 208 20 312 292 266 207 184 260 83 166 206 199 291 289 288 301 302 302 305 3 136 113 121 94 109 69 357 351 350 18 267 10 349 82 142 253 321 111 109 175 279 304 98 97 104 112 170 136 128 94 199 82 99 109 349 327 357 306 315 316 308 294 321 342 350 332 1 331 24 352 279 93 132 202 256
353 353 353 354 353 351 350 348 350 356 2 338 326 267 3 28 20 304 56 320 336 285 266 290 257 285 291 322 273 252 189 301 16 62 65 102 111 130 187 337 38 5 42 30 35 7 338 117 259 51 44 358 351 334 64 84 102 151 134 121 86 132 84 106 149 150 179 218 222 245 221 327 320 332 10 337 353 36 89 104 78 263 199 69 225 172 246
353 354 354 355 354 353 352 351 346 353 1 1 2 307 165 282 86 354 359 319 242 267 299 272 281 259 95 254 286 339 353 52 30 349 104 351 85 21 32 108 39 327 63 4 28 3 359 355 77 8 82 324 331 16 113 82 147 156 124 122 78 66 36 251 144 186 210 209 223 257 260 260 337 26 12 26 47 69 73 80 138 184 68 335 291 287 111
353 354 356 356 355 356 355 353 349 345 357 2 266 17 0 33 306 64 104 170 253 357 315 294 265 266 251 248 259 263 158 215 107 313 129 171 93 102 336 19 92 111 137 128 46 350 43 29 25 320 12 54 348 41 353 111 310 58 45 68 109 131 103 262 145 255 239 223 231 259 291 74 71 45 34 48 48 62 78 59 115 120 116 191 261 202 126
354 354 356 357 356 357 357 356 353 347 343 3 311 54 327 71 337 309 9 8 274 230 261 284 281 283 243 238 264 248 155 160 185 172 42 43 2 89 92 346 41 122 107 99 147 4 65 358 355 42 330 25 10 17 350 340 354 10 87 14 74 85 277 240 187 279 333 328 316 320 330 70 54 33 32 42 59 62 68 73 51 90 146 201 179 142 132
354 355 356 357 357 358 360 358 356 351 341 334 65 52 27 7 2 322 347 253 276 264 276 293 307 333 310 188 268 241 81 57 69 72 89 63 330 50 89 72 51 15 51 72 64 330 147 173 114 309 106 343 50 263 158 284 331 30 81 131 321 100 282 331 38 42 318 306 324 1 68 93 68 42 34 30 54 56 45 51 9 57 3 347 12 103 230
354 354 355 356 357 359 360 1 1 355 345 42 24 49 50 297 264 283 310 322 288 318 341 338 333 7 358 2 298 324 355 90 174 64 79 124 145 110 147 121 66 54 72 67 62 64 126 116 134 139 110 152 228 95 273 44 353 338 8 13 343 39 274 38 71 53 319 302 335 343 91 86 79 39 19 23 27 56 337 75 308 93 279 326 11 27 294
354 354 354 355 357 357 359 3 3 4 345 66 352 3 299 287 266 298 201 257 292 344 322 321 352 19 318 311 319 251 185 202 125 77 53 81 77 104 115 102 99 38 58 31 1 334 99 98 178 156 190 176 222 202 216 210 194 220 207 226 354 153 121 21 49 48 265 269 308 328 5 109 20 2 318 347 27 27 27 6 20 61 217 96 191 239 230
354 355 353 355 356 356 357 1 6 10 13 36 358 316 332 11 341 349 359 349 313 357 346 315 34 271 314 355 338 357 47 42 53 116 15 25 32 79 85 80 97 155 102 64 277 234 146 264 289 271 264 246 237 255 260 277 250 211 167 101 213 105 101 210 176 144 249 279 313 346 36 323 243 237 312 80 92 268 154 257 263 320 60 191 184 210 268
354 353 354 354 354 355 355 356 3 13 23 347 232 265 249 316 295 230 8 32 282 325 10 284 356 314 349 354 356 360 52 76 82 102 110 82 99 37 87 72 83 55 260 269 12 12 4 12 10 0 329 259 252 257 250 249 257 235 188 155 164 155 152 187 172 118 266 310 21 36 316 235 230 248 27 97 102 82 174 210 227 226 359 29 26 355 342
353 354 355 354 352 354 354 353 357 3 9 353 262 269 308 333 250 334 335 46 281 341 358 326 320 334 340 11 358 9 6 17 74 98 95 92 24 21 51 112 112 184 203 86 46 47 49 295 310 279 280 295 273 257 256 254 259 245 204 169 142 179 143 182 32 159 22 37 43 50 242 221 225 272 40 20 66 31 82 318 284 264 156 163 129 285 283
351 351 353 353 352 353 353 353 353 354 360 0 337 287 288 331 355 353 26 35 301 256 322 296 340 349 350 9 1 347 2 13 349 26 54 6 111 79 69 72 123 156 146 92 60 67 12 32 351 10 324 7 3 337 240 229 232 220 195 210 165 149 103 95 293 163 200 207 135 211 205 260 342 1 344 79 202 310 129 250 271 220 188 142 192 281 299
345 350 350 352 353 352 352 352 353 353 352 356 312 304 312 305 323 317 288 133 272 284 222 57 329 321 323 352 22 16 23 357 22 350 325 10 49 24 90 123 177 129 83 67 13 39 141 102 20 18 327 39 332 258 296 177 251 205 183 192 150 132 143 228 105 269 132 148 3 40 8 221 262 238 259 252 195 204 207 181 294 287 284 272 135 308 292
337 346 348 350 352 353 351 349 352 355 356 350 0 354 287 274 303 302 289 211 327 345 230 319 322 320 306 322 21 66 24 23 339 329 7 359 41 33 12 21 93 79 69 71 112 103 108 117 238 113 219 226 231 41 304 309 336 29 91 105 88 62 99 143 121 205 54 55 158 216 195 241 212 234 244 244 224 216 143 68 290 263 255 284 177 304 275
333 340 345 347 348 350 350 350 350 354 355 5 341 324 288 352 9 337 328 352 174 241 294 322 330 321 9 354 354 11 22 61 352 51 351 350 340 10 307 299 341 65 88 75 8 60 14 1 351 189 269 236 255 218 252 24 30 78 358 41 65 85 41 53 33 18 261 160 155 255 194 207 248 237 244 237 213 82 68 343 281 258 257 264 286 292 288
329 334 340 343 345 345 349 349 350 351 354 352 350 306 291 316 356 333 352 320 308 284 240 41 17 350 5 313 290 279 5 8 27 59 116 250 359 4 303 1 28 353 103 95 146 78 141 155 235 230 245 258 170 74 220 213 101 193 164 123 102 66 2 78 180 173 226 127 175 39 313 269 239 227 240 281 3 75 71 269 245 245 242 266 248 284 281
324 328 333 339 340 341 343 346 349 352 354 353 342 305 249 323 337 8 356 328 28 272 275 332 275 243 280 319 305 327 101 112 64 63 333 11 353 260 244 265 83 241 357 149 69 166 146 265 215 192 205 302 18 198 230 50 226 255 103 59 19 348 44 311 63 59 134 199 139 218 227 237 196 264 184 250 75 334 244 233 206 211 278 277 263 286 286
319 322 325 329 334 336 339 342 346 350 355 355 1 289 274 298 333 18 0 348 277 271 290 281 292 294 337 334 335 354 348 18 36 106 111 135 278 1 26 8 325 65 357 54 352 233 142 243 245 261 346 247 263 184 48 272 303 161 179 187 127 199 117 226 58 246 41 37 70 359 301 247 184 186 337 19 113 232 208 250 286 210 264 274 299 278 278
316 317 319 320 325 329 332 337 341 347 352 356 357 336 327 259 12 342 357 310 279 304 298 270 241 297 307 285 273 271 291 49 336 81 239 191 234 85 127 197 239 267 222 143 169 276 139 326 319 328 225 135 283 51 200 322 349 305 135 185 125 200 87 269 266 169 161 132 176 197 206 215 218 138 195 233 204 195 186 157 281 276 233 258 264 271 258
313 314 316 315 318 324 327 331 336 342 349 353 353 311 270 291 332 312 315 248 205 210 237 292 302 283 278 266 264 257 253 247 209 179 117 331 313 152 208 168 228 164 218 122 44 11 1 235 39 34 344 307 20 117 181 56 324 273 346 75 6 242 164 178 159 243 142 202 214 241 219 187 224 162 198 213 230 203 193 174 209 248 280 219 231 263 274
310 310 311 310 313 318 322 326 330 336 344 351 360 33 283 305 314 321 306 286 255 257 267 272 282 278 271 265 248 241 239 216 174 67 129 123 326 344 26 39 322 290 59 99 164 158 192 126 226 177 22 239 275 300 358 140 182 263 107 267 178 252 177 157 87 237 128 219 194 191 6 291 309 244 189 195 242 254 208 207 245 246 241 238 238 264 274
308 307 307 306 307 312 315 321 325 329 336 340 350 307 304 280 286 319 326 219 278 308 296 279 320 286 341 345 330 305 225 195 158 174 170 122 125 306 334 292 196 32 11 251 180 130 207 141 218 137 207 246 79 68 61 333 292 232 82 310 337 292 86 72 127 239 74 255 304 130 203 272 269 216 255 260 248 246 216 226 223 249 257 262 254 250 262
307 306 303 303 304 306 311 317 321 326 329 331 330 253 241 285 231 42 22 354 335 41 297 307 284 240 327 314 271 304 301 251 186 177 185 122 128 162 190 229 186 143 220 247 86 48 42 75 328 45 189 261 115 275 236 111 306 143 42 260 25 296 130 69 174 117 133 221 236 239 246 236 230 186 202 261 283 280 261 232 240 243 257 248 258 263 274
307 305 302 302 302 304 307 313 320 325 326 324 323 306 304 268 269 41 232 247 237 231 275 296 278 326 346 352 326 292 292 291 214 190 184 182 164 166 172 223 7 17 120 108 99 107 140 68 111 176 130 291 141 139 223 195 189 182 142 227 196 180 81 195 159 162 273 310 300 306 347 14 359 342 6 222 229 251 284 276 256 241 245 272 305 302 279
309 306 303 301 300 301 305 312 319 324 325 323 319 289 257 270 245 209 186 194 17 346 315 263 286 312 355 320 289 302 297 260 203 174 175 173 161 150 95 125 158 359 37 2 21 129 68 101 125 245 190 228 170 200 176 344 156 174 166 284 64 62 96 239 66 39 297 193 229 167 174 270 295 311 295 311 308 337 327 328 322 319 323 318 297 308 317
308 302 297 296 297 300 304 310 316 324 328 322 307 291 262 241 239 200 213 191 138 202 237 283 303 297 307 266 264 301 315 248 152 179 184 225 237 129 153 164 154 106 65 94 345 346 118 165 260 232 174 317 42 310 306 226 69 38 30 280 183 138 199 136 147 160 222 236 219 185 159 213 235 235 288 305 311 326 328 313 299 296 287 259 342 338 329
303 302 298 294 293 295 300 306 315 329 329 328 309 306 299 219 224 221 261 246 182 217 253 271 282 320 299 302 314 312 307 300 181 158 173 211 205 156 157 180 166 178 127 110 122 130 149 221 192 138 199 211 104 275 16 323 44 225 238 268 32 226 150 141 171 139 160 197 189 175 131 229 269 274 284 297 301 332 316 309 302 310 288 271 305 292 294
299 298 296 294 290 290 294 302 314 330 332 330 333 348 359 24 90 73 42 42 21 99 17 355 337 263 302 315 285 286 282 283 239 201 200 198 210 225 210 164 204 194 149 173 157 212 225 172 267 273 319 32 131 201 84 235 132 245 254 266 115 61 77 123 142 129 197 219 194 194 198 228 236 255 278 276 284 317 318 310 314 305 294 278 282 300 281
295 295 294 293 289 286 292 298 310 322 341 338 360 14 51 207 251 150 57 39 19 39 4 218 239 292 310 246 247 271 274 251 230 212 204 206 192 204 226 171 250 145 175 80 71 227 202 287 119 324 173 165 123 118 180 132 247 304 274 74 136 118 119 133 148 149 160 220 249 310 13 277 303 346 337 325 321 327 325 321 322 318 308 324 316 304 311
293 293 292 290 288 286 290 294 297 305 264 225 164 204 212 257 288 284 314 28 358 30 31 327 313 319 270 289 271 279 280 264 202 192 235 156 253 199 224 179 218 192 142 159 195 91 232 209 155 212 175 251 92 137 103 112 168 228 165 122 146 141 137 98 94 205 2 25 56 19 4 325 337 306 268 300 321 331 338 318 305 308 321 318 307 334 317
289 290 289 289 291 294 294 291 285 265 237 252 260 268 271 271 271 268 281 340 19 187 193 229 242 260 273 256 301 300 266 314 64 141 259 233 207 139 264 42 64 57 328 94 312 183 224 172 174 157 258 28 134 173 149 197 216 195 168 161 171 154 152 149 42 59 66 23 74 108 254 261 280 298 294 296 324 336 326 315 303 311 335 355 351 352 355
294 297 299 299 296 294 289 283 282 283 278 271 296 245 237 234 246 256 209 151 185 219 190 196 286 253 262 306 331 283 212 184 228 170 211 283 185 122 217 77 16 98 324 158 247 108 327 55 153 205 18 274 112 98 247 261 194 166 180 168 161 120 111 71 69 45 16 22 359 232 259 268 265 284 349 357 332 318 325 315 317 332 332 345 340 330 319
317 311 307 301 293 285 283 284 291 203 243 259 256 266 298 273 206 144 155 155 124 315 162 258 193 293 322 343 298 278 283 214 223 211 171 251 102 156 212 86 332 113 267 120 46 182 176 220 163 105 231 178 86 196 228 191 206 153 138 127 61 73 46 45 353 343 347 355 2 339 340 16 11 346 319 315 321 317 331 317 313 335 347 324 311 317 327
318 310 301 295 292 285 289 240 167 187 211 248 239 301 343 53 96 139 195 286 129 154 161 241 171 217 167 239 274 272 308 336 234 139 194 154 26 357 110 117 84 254 190 134 192 186 210 240 133 245 231 155 221 188 210 173 166 168 157 153 180 130 143 175 204 315 345 335 332 335 349 349 352 314 311 312 311 311 306 308 314 323 312 312 309 304 319
308 301 302 298 291 112 251 229 168 187 209 243 274 268 294 141 119 120 354 10 325 108 177 206 273 241 177 230 276 275 341 312 287 86 38 131 199 254 73 58 206 243 45 350 194 174 249 57 121 166 196 194 248 239 182 163 150 149 148 149 140 117 115 107 128 71 16 341 339 326 321 334 329 322 324 314 305 303 321 314 304 307 302 305 307 310 298
304 298 279 328 318 287 282 230 140 277 296 290 146 30 319 22 124 345 54 348 243 145 258 146 241 242 210 201 254 256 4 277 5 127 296 225 107 272 132 133 218 150 227 217 237 185 97 59 173 173 258 263 248 160 147 141 153 142 136 131 124 127 138 139 100 51 24 348 342 326 334 343 318 291 295 297 302 311 301 291 287 284 285 287 291 293 311
303 251 248 229 239 247 218 279 329 322 309 186 119 164 229 196 147 215 215 190 133 210 235 164 234 182 174 216 263 283 177 289 337 329 250 279 108 307 15 127 293 57 300 234 281 16 308 325 315 95 181 241 134 195 165 133 127 133 138 135 134 150 130 114 138 156 225 248 242 245 237 265 287 298 297 287 287 284 287 295 291 300 310 312 312 312 312
159 266 245 217 208 254 322 307 335 327 307 152 213 179 219 193 143 245 171 160 234 225 160 232 216 179 190 205 218 270 190 191 223 257 208 289 85 154 253 87 249 103 222 173 239 68 125 208 274 100 257 236 217 226 155 137 126 139 127 124 135 140 122 111 34 265 199 278 259 267 71 32 269 271 286 284 286 298 310 314 310 315 321 316 333 342 319
7 329 302 298 331 322 300 318 316 241 225 185 163 263 289 261 220 219 205 200 191 222 185 200 184 204 210 203 185 231 275 235 228 172 138 162 251 80 74 197 220 99 265 229 273 86 110 135 195 184 231 200 185 187 158 134 144 158 154 129 125 116 104 102 13 13 53 24 3 12 359 327 315 298 291 295 288 289 297 316 330 317 316 325 334 327 319
306 275 292 305 280 278 298 275 208 306 238 160 165 244 208 229 231 219 176 170 219 222 217 183 219 192 216 189 196 179 260 192 194 179 146 191 257 129 200 169 61 129 225 237 146 81 98 193 230 256 259 201 186 163 135 136 147 120 120 131 130 139 154 98 68 8 40 94 104 72 342 327 317 328 323 351 3 353 342 353 355 347 338 329 348 8 1
277 261 237 265 272 238 205 286 232 174 168 202 161 252 242 213 203 185 223 224 268 223 248 192 222 185 230 120 230 197 209 189 167 265 152 213 307 63 104 162 121 243 235 114 88 107 190 220 218 242 210 188 168 154 161 158 147 120 141 162 168 182 102 102 106 68 350 37 113 89 357 349 351 5 23 29 23 29 19 16 9 2 1 7 11 7 358
275 229 221 201 222 250 184 240 227 102 247 181 145 188 180 209 244 183 221 236 194 237 235 201 241 167 233 250 157 177 227 316 18 111 78 163 107 127 116 199 201 227 110 55 120 177 216 216 207 198 183 186 153 135 138 131 124 101 79 46 73 95 100 95 73 52 26 35 52 34 32 51 60 47 38 38 34 31 15 13 1 353 352 360 358 343 325
318 269 218 249 227 250 122 263 215 182 199 206 178 201 185 197 209 202 210 247 206 223 307 16 27 8 215 304 337 266 130 194 317 126 223 134 86 199 127 232 234 95 140 217 169 2 342 270 249 160 168 165 164 165 147 133 127 137 160 102 117 115 111 106 90 87 68 78 93 69 63 65 70 56 46 34 23 21 20 8 354 5 0 349 343 332 323
281 250 188 180 229 273 164 241 124 200 240 203 207 201 207 227 187 236 269 1 21 354 360 350 335 89 106 214 125 259 309 107 119 217 172 137 131 232 219 138 78 106 296 109 169 199 215 218 189 186 178 167 162 155 144 150 157 128 96 126 165 127 123 127 144 126 99 105 86 82 77 70 71 67 50 34 27 18 13 7 14 7 350 350 347 341 331
267 268 254 193 209 257 201 227 217 212 183 204 224 210 210 223 228 125 51 79 52 238 234 266 253 226 134 248 72 1 341 301 183 259 82 95 184 254 352 103 215 174 163 215 219 232 242 228 190 184 168 158 149 146 146 156 161 145 157 116 111 132 111 114 112 110 110 106 100 93 90 79 71 63 61 46 30 16 17 20 13 9 15 21 7 10 33
249 258 264 200 216 181 201 231 280 290 319 17 355 3 326 323 49 20 314 290 195 50 51 12 17 342 3 274 137 175 173 311 357 312 198 181 339 85 32 20 233 225 177 176 225 212 210 192 172 168 163 152 146 146 154 149 131 132 113 119 133 117 125 117 95 109 121 119 118 109 99 84 79 75 69 58 40 23 23 21 21 19 32 35 38 42 49
278 298 233 240 239 241 264 228 218 250 284 37 31 36 353 332 62 76 304 310 30 57 80 103 142 348 305 294 145 128 235 241 183 243 285 44 135 190 157 199 185 224 258 177 205 210 191 174 158 147 144 143 148 147 152 144 132 125 123 135 142 143 129 117 116 117 121 122 119 113 104 97 96 88 75 61 55 34 22 28 32 41 41 48 50 51 50
238 250 260 269 296 246 228 269 71 261 336 58 30 51 235 242 230 82 328 348 314 87 95 71 66 95 280 68 1 310 238 218 183 188 179 204 196 188 150 219 210 188 231 215 192 182 156 148 139 137 144 145 145 140 136 135 122 119 130 139 132 119 121 117 115 120 121 125 118 111 102 92 91 97 88 83 69 53 44 42 38 47 48 44 53 58 58
215 267 260 255 255 269 20 214 207 359 6 346 327 292 311 322 342 11 333 329 294 69 48 96 113 114 24 19 65 279 254 197 164 189 168 194 206 166 183 200 230 207 220 200 153 147 146 146 139 143 142 145 147 146 144 142 136 136 139 125 111 110 111 116 124 123 116 111 111 106 93 98 99 96 88 78 64 64 57 45 39 48 53 51 47 55 58
209 210 231 234 240 263 266 286 293 223 241 263 276 279 312 323 346 326 314 326 304 104 146 143 115 89 91 180 214 199 287 296 199 160 182 249 168 187 201 190 199 186 155 138 148 153 138 145 145 146 148 148 147 145 141 134 124 127 131 126 125 125 129 131 134 131 126 119 114 118 115 96 86 88 93 88 75 71 70 61 40 50 64 63 53 46 56